Location: Caltech
(34.1382°N, 118.1253°W)
Time: 13:46:42
(UTC-07:00)

PCSat - Visible Passes

Search period start: 18 April 2015 00:00
Search period end: 28 April 2015 00:00
Orbit: 786 x 795 km, 67.1° (Epoch: 18 April)

Date Brightness Start Highest point End Pass type
(mag) Time Alt. Az. Time Alt. Az. Time Alt. Az.
18 Apr 11.5 20:49:44 10° NW 20:54:12 26° WSW 20:58:31 10° SSW visible
19 Apr 11.0 20:18:37 10° NW 20:23:35 37° WSW 20:28:28 10° S visible
20 Apr 10.4 19:47:40 10° NW 19:52:58 53° WSW 19:58:10 10° S visible
22 Apr 12.6 20:32:57 10° W 20:34:27 11° WSW 20:35:33 10° WSW visible
23 Apr 12.3 20:00:27 10° WNW 20:03:52 16° WSW 20:07:02 10° SW visible
